Theta_e
312 314 314 315 314 315 314 313 314 314 314 312 313 313 313 312 312 312 313 313 314 313 313 311 311 311 312 312 312 312 312 312 312 312 312 312 313 313 314 314 314 314 313 311
311 313 314 313 312 312 313 313 314 314 313 311 313 313 313 313 313 313 313 313 313 313 312 311 311 311 311 311 311 310 311 310 310 311 311 310 311 311 312 313 314 314 313 312
314 315 311 311 312 312 313 313 313 314 312 311 311 314 314 315 313 312 312 312 311 311 310 309 310 311 311 311 310 310 309 310 310 309 308 308 308 309 309 310 312 313 313 312
312 311 310 310 311 312 314 314 312 311 312 313 310 315 316 315 315 313 313 311 311 310 308 308 307 309 310 310 309 309 310 309 309 308 307 307 307 309 309 309 309 310 311 312
314 311 310 311 312 311 313 309 309 310 311 311 313 313 318 311 315 315 313 310 308 306 305 305 305 305 306 308 309 309 309 308 307 306 306 306 306 305 304 305 308 308 308 309
310 307 308 311 308 309 308 310 310 309 311 315 316 314 316 315 314 314 313 306 305 304 303 303 304 307 308 307 307 307 307 307 308 307 306 305 304 304 304 305 305 304 305 306
316 314 308 307 310 308 309 311 316 320 318 320 310 315 314 314 312 311 307 305 304 303 302 303 305 305 305 307 307 306 306 305 305 306 305 304 304 303 303 303 303 303 303 304
317 319 309 307 311 314 310 314 321 324 324 323 318 321 319 314 310 306 305 305 303 302 301 301 301 303 303 303 303 303 304 304 304 304 304 303 303 303 302 302 302 302 302 303
318 318 310 306 307 311 314 313 313 316 317 318 318 318 316 311 311 307 306 305 302 301 300 299 302 302 302 302 302 301 302 302 303 303 303 303 303 303 302 302 301 301 302 302
315 319 316 313 306 307 310 309 313 315 319 321 318 316 316 314 311 309 306 303 300 299 298 298 297 297 299 300 301 301 301 301 300 300 300 301 301 302 303 303 302 300 300 301
314 315 315 314 313 314 308 311 313 313 316 318 318 315 313 312 308 307 303 299 298 297 296 296 296 297 297 297 298 298 298 298 300 299 298 299 299 300 300 302 303 302 300 299
313 315 316 316 314 311 312 314 315 316 315 313 313 314 309 307 304 301 298 296 296 294 293 293 293 294 294 293 293 294 296 297 296 295 296 296 297 297 298 299 300 301 302 301
313 314 315 316 313 310 311 312 312 312 312 315 316 317 308 302 300 298 296 295 294 294 292 291 291 291 294 291 289 290 291 291 291 292 293 294 294 294 294 296 298 298 299 299
310 312 312 314 314 313 313 312 311 311 312 312 312 310 309 308 305 297 294 294 293 291 290 290 290 290 290 288 288 288 287 287 288 288 288 289 290 291 290 291 293 297 298 298
307 309 309 310 310 310 308 307 306 306 306 307 306 306 305 304 296 294 291 292 294 290 289 289 289 289 288 288 288 287 287 287 287 287 287 286 287 287 288 288 288 289 292 298
302 305 305 303 304 304 304 303 303 302 301 301 301 301 302 294 292 293 291 291 292 291 289 289 289 288 288 287 287 287 287 287 286 286 286 286 286 286 286 286 287 287 287 288
299 301 302 303 302 300 300 300 300 300 300 300 299 298 294 293 292 292 291 290 291 290 289 289 288 288 288 288 286 286 286 286 285 285 285 285 285 285 286 285 285 285 286 286
297 299 299 300 297 299 300 297 297 297 298 296 295 293 293 292 291 291 291 290 290 290 289 289 288 288 287 287 286 286 286 285 285 285 285 285 285 285 285 285 285 285 284 285
295 296 297 295 297 297 295 295 295 295 296 295 293 292 291 290 291 291 290 290 289 290 289 288 288 288 287 287 286 285 285 285 285 284 284 284 284 284 285 285 285 285 285 284
292 294 295 287 294 293 294 292 291 291 294 293 291 291 290 290 291 291 290 289 289 289 289 288 288 288 287 287 285 285 284 283 283 283 283 282 282 283 283 284 284 285 285 285
291 291 294 295 294 293 294 291 291 293 294 293 291 291 290 290 290 290 289 289 289 288 288 289 287 287 287 286 284 283 282 281 280 279 280 281 281 281 281 282 283 283 284 284
291 292 291 288 291 292 290 290 291 293 291 290 290 290 290 290 289 289 289 289 289 288 288 287 286 286 285 284 281 280 280 279 278 277 277 277 277 278 279 279 281 282 282 282
291 292 291 289 291 291 289 291 291 291 291 290 290 290 289 289 288 288 288 287 287 286 285 284 282 281 282 280 278 277 277 276 275 275 274 273 273 272 273 273 274 274 277 278
291 291 290 291 292 291 290 290 290 290 290 290 289 289 288 288 287 287 286 285 284 283 281 280 279 279 279 277 275 273 273 272 271 270 270 270 269 269 269 269 269 270 271 273
291 290 290 291 291 290 290 290 290 290 290 289 289 288 287 286 285 283 283 282 281 279 278 276 275 274 275 273 273 271 271 269 267 266 266 265 265 265 266 266 267 268 269 270
291 291 291 291 291 291 290 290 290 289 288 288 287 286 284 283 283 282 280 278 277 276 275 274 273 272 272 270 270 269 267 265 263 262 262 263 263 263 263 264 264 266 267 269
Wind_Speed
6 9 13 21 21 21 16 16 21 20 18 13 22 21 18 27 33 36 38 31 23 19 17 16 18 15 12 11 15 18 22 23 29 35 42 48 53 53 54 54 52 51 50 49
3 13 17 10 8 12 17 21 22 21 17 7 18 24 24 23 31 34 31 23 19 17 14 16 22 20 17 14 12 14 17 21 25 29 34 40 42 47 49 53 55 54 53 52
18 11 4 13 13 14 18 17 19 21 14 13 13 15 3 9 15 17 15 15 11 10 16 21 24 25 25 21 12 15 15 16 18 22 27 31 38 38 39 45 52 54 54 54
10 6 6 4 9 14 21 15 17 15 7 9 5 10 11 14 15 5 13 12 12 18 21 22 24 28 29 29 22 15 12 13 15 16 21 26 29 35 38 41 42 47 51 54
7 5 3 9 11 6 9 5 5 4 7 6 6 7 4 2 11 5 9 12 18 20 19 22 24 27 29 30 29 28 24 18 12 10 13 19 23 25 24 31 37 39 40 46
13 3 5 6 2 5 0 5 6 2 4 8 9 8 3 2 2 2 11 19 17 19 21 23 24 29 28 25 25 26 25 22 19 17 13 13 17 21 26 30 34 36 35 35
12 11 3 5 8 3 2 4 5 6 5 8 4 4 7 12 4 8 12 13 21 24 24 29 33 31 29 27 26 25 23 22 19 15 13 12 12 15 21 23 29 31 34 36
10 17 6 5 4 3 4 4 4 5 8 17 5 9 5 5 10 19 21 17 16 19 21 23 25 26 26 27 27 27 26 23 21 19 18 16 15 14 16 18 23 26 31 33
5 9 1 5 4 4 5 8 8 13 9 6 10 16 14 6 8 12 12 12 14 15 16 18 21 23 24 25 25 25 24 25 26 24 22 20 17 17 18 18 21 21 25 29
3 6 10 2 2 7 8 2 3 3 6 7 8 18 15 12 8 5 9 12 14 15 16 15 16 19 22 23 23 24 26 26 24 23 23 23 23 21 18 20 22 22 22 23
11 8 15 1 8 16 4 6 5 3 5 6 14 14 15 5 8 7 9 14 16 17 18 18 18 20 21 22 24 26 26 25 25 26 25 23 23 23 23 20 21 23 24 23
7 3 6 19 16 10 11 17 20 13 12 13 17 19 8 11 8 5 4 4 6 10 13 14 14 16 18 21 22 22 24 25 26 27 26 27 26 25 24 23 23 22 24 25
3 3 8 7 7 1 6 7 9 8 2 14 14 4 8 12 10 5 2 0 2 7 11 14 15 14 15 21 23 24 25 25 26 25 25 25 26 26 26 26 25 25 26 25
2 4 8 13 16 15 10 11 8 9 6 11 11 18 19 17 11 1 2 2 1 2 5 8 12 16 16 19 22 25 26 27 27 27 27 26 26 27 29 28 27 25 25 26
1 7 10 13 12 11 13 16 17 17 15 9 15 18 22 17 2 1 3 4 6 5 6 8 11 13 16 20 22 24 25 27 30 31 31 32 30 29 30 30 31 29 26 26
2 8 10 14 16 14 16 17 19 19 20 22 24 26 19 1 2 4 6 8 9 8 10 12 14 15 18 19 23 23 25 27 30 32 33 33 36 36 32 32 34 35 32 30
3 4 7 17 15 10 10 20 17 19 23 23 23 13 5 2 5 9 9 14 16 13 14 18 19 18 18 19 24 26 27 28 28 28 30 33 36 38 39 40 37 36 37 36
14 13 6 11 8 19 15 11 14 17 17 1 3 3 2 4 10 13 13 18 19 17 15 19 23 25 24 27 30 31 32 31 31 29 30 33 36 39 41 42 43 41 40 39
19 14 8 8 15 18 20 17 9 8 14 7 7 3 4 12 13 21 15 21 22 21 21 24 30 35 35 35 34 35 37 37 38 38 39 38 38 39 40 43 45 47 47 46
7 13 10 3 7 10 7 2 3 2 9 9 5 2 8 10 9 13 24 22 21 24 27 30 30 36 39 40 40 43 46 45 45 44 43 43 43 43 43 43 45 48 49 50
2 2 12 12 11 9 5 4 6 5 4 8 11 16 16 10 18 25 23 22 24 27 32 35 34 40 43 42 45 48 47 46 40 43 48 49 50 52 52 51 48 48 50 53
5 5 4 1 4 10 6 7 6 2 14 20 19 22 21 23 22 23 24 25 24 24 26 32 40 44 45 47 45 47 50 47 42 39 45 52 57 60 60 60 58 55 53 54
8 10 6 9 7 4 8 10 17 29 28 30 25 25 21 20 22 21 20 18 21 24 32 37 40 45 48 47 44 44 50 44 46 52 57 56 54 57 59 59 60 57 59 57
16 21 11 13 19 21 30 32 34 36 30 27 25 25 24 18 16 22 22 24 26 29 32 37 42 46 51 52 51 47 53 53 53 56 55 52 48 48 47 47 46 44 47 49
14 6 10 14 21 25 32 31 36 34 29 25 22 20 17 18 21 21 24 27 29 30 32 33 40 46 51 52 52 49 51 51 52 52 50 47 44 43 43 41 40 40 42 41
20 18 12 15 29 21 31 31 27 24 20 19 19 18 16 17 20 24 26 28 29 31 35 40 42 45 46 45 46 46 43 40 40 43 41 39 40 42 41 42 44 41 40 41
Wind_Direction
187 209 216 231 228 246 280 272 271 277 282 297 283 287 285 282 280 279 280 286 291 287 311 335 349 335 320 296 284 274 266 263 255 249 242 240 241 241 240 240 240 239 238 236
174 236 244 275 276 255 259 265 273 277 275 285 287 293 288 272 270 272 281 291 290 305 345 22 33 24 12 336 305 289 283 274 264 257 254 246 245 244 244 242 242 240 238 236
247 266 251 221 240 260 252 262 269 276 306 273 297 284 246 294 268 290 290 288 310 357 33 27 28 31 29 20 332 314 308 283 270 267 259 251 244 244 247 244 244 242 240 240
261 302 245 244 248 247 274 267 267 277 286 282 359 292 293 274 284 334 26 69 61 71 36 25 32 37 36 28 22 2 331 325 297 277 264 259 258 254 256 258 258 254 247 243
273 270 214 224 235 223 272 352 297 282 261 294 240 259 321 260 263 181 59 58 73 45 38 41 41 45 47 50 49 47 40 26 7 328 295 280 273 263 262 259 261 262 264 252
268 268 242 251 182 200 35 300 273 228 267 262 264 222 100 190 276 351 59 79 54 48 42 41 41 44 43 37 34 34 33 31 29 20 359 321 299 286 274 276 272 272 269 260
290 265 248 227 249 133 171 300 299 260 222 268 93 269 273 274 255 4 84 69 50 40 40 36 35 33 29 25 24 23 23 20 13 12 4 345 328 306 292 286 279 275 273 269
288 294 197 163 232 141 175 217 207 277 283 291 286 256 266 297 62 65 56 51 46 40 37 36 35 33 28 25 21 20 20 21 18 13 357 341 328 315 300 295 290 286 282 279
247 253 128 204 155 178 193 216 242 258 268 273 253 270 277 18 169 72 59 48 44 39 37 32 25 22 19 19 17 15 14 10 14 12 5 359 343 325 312 301 292 288 288 285
19 291 222 264 237 225 226 83 219 184 227 231 260 288 273 251 169 70 47 34 26 19 18 18 15 11 7 3 0 358 360 2 2 358 358 357 355 346 328 313 302 293 287 284
192 220 281 240 227 259 188 211 212 199 223 284 278 273 312 344 80 71 26 13 13 12 8 5 5 3 1 1 358 355 356 357 350 349 349 348 347 347 347 335 318 306 292 285
243 250 246 262 264 247 254 263 252 243 250 247 254 256 106 114 107 99 84 38 2 6 6 3 5 2 358 357 357 356 351 349 351 350 348 347 345 342 341 342 340 327 311 300
15 246 275 255 245 177 245 259 272 279 308 250 259 238 110 136 97 58 134 354 21 356 353 354 355 358 354 353 352 351 350 348 346 344 341 338 339 339 338 336 334 337 332 319
317 223 254 275 284 308 285 269 263 248 260 276 254 273 274 284 315 356 295 287 261 332 341 349 349 349 352 349 345 342 344 344 343 342 339 337 336 335 335 335 329 323 326 328
281 268 278 275 280 279 273 275 265 260 268 258 285 288 279 299 331 10 322 265 236 272 323 334 340 338 341 338 335 333 333 334 333 334 335 335 333 331 329 330 330 329 322 311
189 262 288 282 278 259 263 261 264 275 272 264 261 266 287 302 325 262 293 303 284 298 332 335 333 329 330 326 329 324 320 323 324 325 324 323 322 324 327 325 323 325 326 324
276 270 270 270 276 288 260 246 260 267 270 271 275 293 97 185 286 302 306 318 303 295 325 332 330 323 312 309 317 320 315 314 313 311 312 315 317 318 320 322 323 322 322 322
248 245 257 272 299 258 274 314 276 271 281 32 115 129 198 286 302 295 291 293 291 276 300 317 323 321 317 312 312 316 313 305 304 300 300 303 306 307 310 313 315 317 318 319
233 253 257 251 251 287 301 281 253 245 278 182 161 177 334 319 301 295 298 298 290 276 279 302 319 319 317 313 310 312 311 309 303 299 299 299 298 297 298 301 304 308 311 312
225 236 236 167 249 265 306 124 109 122 276 176 189 261 296 302 276 293 308 305 292 286 278 293 307 311 311 311 310 309 309 309 305 304 301 299 297 295 295 294 295 298 300 303
183 204 229 237 250 266 267 151 144 237 293 170 250 272 281 268 268 288 295 294 294 297 285 287 299 306 307 307 309 306 307 304 303 302 300 297 296 296 295 293 291 292 292 295
253 250 206 169 248 267 172 130 222 267 299 300 289 293 289 293 287 287 294 298 296 288 287 293 300 301 302 305 308 307 305 307 302 296 296 296 297 295 293 293 291 289 289 288
251 226 255 215 246 257 200 244 258 285 288 286 288 294 295 287 286 290 293 293 290 292 297 301 303 304 304 306 307 304 304 303 299 296 294 293 293 293 293 292 291 290 287 286
257 258 244 262 254 259 268 268 273 279 279 283 287 293 292 284 288 296 298 298 299 302 304 305 305 306 306 307 306 302 301 300 296 293 293 293 292 291 289 287 286 283 282 281
246 251 241 252 262 273 266 267 270 274 276 276 276 281 280 287 295 299 300 302 305 305 306 307 308 308 307 310 308 308 307 305 300 297 295 294 293 291 290 286 283 278 275 272
246 243 246 256 268 262 273 276 277 275 262 259 271 276 282 290 296 300 303 306 306 308 310 312 312 312 313 313 313 314 315 313 309 304 300 298 295 294 292 290 289 285 277 275